User: anonymous   Login
Location: Robert Brownlee Observatory
(34.2308°N, 117.2089°W)
Time: 02:27:19
(UTC-08:00)
Language:

Cosmos 1943 - Orbit

View from above orbital plane
View from above orbital plane
View from above satellite
View from above satellite

Ground track
Ground track

The orbit data is extracted from the following two-line orbital elements,

1 19119U 88039A   18053.33887762 -.00000256 +00000-0 -10737-3 0  9996
2 19119 071.0035 296.4541 0010240 025.9655 080.9361 14.15109720537214
Epoch (UTC): 22 February 2018 08:07:59
Eccentricity: 0.0010240
inclination: 71.0035°
perigee height: 834 km
apogee height: 849 km
right ascension of ascending node: 296.4541°
argument of perigee: 25.9655°
revolutions per day: 14.15109720
mean anomaly at epoch: 80.9361°
orbit number at epoch: 53721

The dashed part of the orbit path shows where the satellite is in the earth's shadow,  

DLR